Weather History for Liverpool, United Kingdom

Change the Weather History Date:

Monday, January 21, 2013

  Actual Average Record
Temperature  
Mean Temperature 32 °F -  
Max Temperature 33 °F 45 °F 55 °F (2002)
Min Temperature 32 °F 36 °F 28 °F (1997)
Degree Days  
Heating Degree Days 32    
Moisture  
Dew Point 32 °F    
Average Humidity 95    
Maximum Humidity 100    
Minimum Humidity 93    
Precipitation  
Precipitation 0.00 in - - ()
Sea Level Pressure  
Sea Level Pressure 29.34 in    
Wind  
Wind Speed 8 mph ()    
Max Wind Speed 12 mph    
Max Gust Speed -    
Visibility 3.9 miles    
Events Rain , Snow    
Averages and records for this station are not official NWS values.
T = Trace of Precipitation, MM = Missing Value Source: Averaged Metar Reports

Daily Weather History Graph

Daily Weather History Graph

Search for Another Location

Airport:

Trip Planner

Search our weather history database for the weather conditions in past years. The results will help you decide how hot, cold, wet, or windy it might be!

Date:

Astronomy

Jan. 21, 2013 Rise Set
Actual Time 8:11 AM GMT 4:34 PM GMT
Civil Twilight 7:32 AM GMT 5:13 PM GMT
Nautical Twilight 6:49 AM GMT 5:57 PM GMT
Astronomical Twilight 6:07 AM GMT 6:38 PM GMT
Moon 12:02 PM GMT (1/21) 3:27 AM GMT (1/21)
Length of Visible Light 9h 41m
Length of Day
8h 22m
Waxing Gibbous, 73% of the Moon is Illuminated
Jan 21
Waxing Gibbous
Jan 27
Full
Feb 3
Last Quarter
Feb 10
New
Feb 17
First Quarter

Hourly Weather History & Observations

Time (GMT) Temp. Windchill Dew Point Humidity Pressure Visibility Wind Dir Wind Speed Gust Speed Precip Events Conditions
12:20 AM 33.8 °F 26.4 °F 32.0 °F 93% 29.36 in 3.1 mi NNE 9.2 mph - N/A Snow Light Snow
12:50 AM 33.8 °F 27.7 °F 32.0 °F 93% 29.36 in 3.1 mi North 6.9 mph - N/A Snow Light Snow
1:20 AM 33.8 °F 26.4 °F 32.0 °F 93% 29.36 in 3.1 mi North 9.2 mph - N/A Snow Light Snow
1:50 AM 33.8 °F 26.4 °F 33.8 °F 100% 29.33 in 3.1 mi North 9.2 mph - N/A Snow Light Snow
2:20 AM 33.8 °F 26.4 °F 33.8 °F 100% 29.33 in 5.0 mi North 9.2 mph - N/A Snow Light Snow
2:50 AM 33.8 °F 26.4 °F 32.0 °F 93% 29.33 in 3.7 mi North 9.2 mph - N/A Snow Light Snow
3:50 AM 33.8 °F 26.4 °F 32.0 °F 93% 29.30 in 5.0 mi North 9.2 mph - N/A Rain , Snow Light Rain
4:20 AM 33.8 °F 25.8 °F 33.8 °F 100% 29.30 in 5.0 mi North 10.4 mph - N/A Rain , Snow Light Rain
4:50 AM 33.8 °F 26.4 °F 32.0 °F 93% 29.30 in 3.1 mi North 9.2 mph - N/A Snow Light Snow
5:20 AM 33.8 °F 26.4 °F 33.8 °F 100% 29.30 in 3.7 mi North 9.2 mph - N/A Snow Light Snow
5:50 AM 33.8 °F 27.0 °F 32.0 °F 93% 29.30 in 5.6 mi NNE 8.1 mph - N/A Rain , Snow Light Rain
6:20 AM 33.8 °F 25.3 °F 32.0 °F 93% 29.30 in 3.7 mi NE 11.5 mph - N/A Rain , Snow Light Rain
6:50 AM 32.0 °F 24.2 °F 32.0 °F 100% 29.30 in 3.7 mi NE 9.2 mph - N/A Snow Light Snow
7:20 AM 32.0 °F 24.2 °F 32.0 °F 100% 29.30 in 3.7 mi NE 9.2 mph - N/A Snow Light Snow
7:50 AM 32.0 °F 24.8 °F 32.0 °F 100% 29.30 in 3.7 mi NE 8.1 mph - N/A Snow Light Snow
8:20 AM 32.0 °F 25.6 °F 32.0 °F 100% 29.30 in 3.1 mi NE 6.9 mph - N/A Snow Light Snow
8:50 AM 33.8 °F 27.7 °F 32.0 °F 93% 29.30 in 3.1 mi NNE 6.9 mph - N/A Snow Light Snow
9:20 AM 32.0 °F 26.4 °F 32.0 °F 100% 29.33 in 2.5 mi North 5.8 mph - N/A Snow Light Snow
9:50 AM 32.0 °F 26.4 °F 32.0 °F 100% 29.33 in 0.6 mi North 5.8 mph - N/A Snow Snow
10:20 AM 32.0 °F 26.4 °F 32.0 °F 100% 29.33 in 0.9 mi North 5.8 mph - N/A Snow Snow
10:50 AM 33.8 °F 27.0 °F 32.0 °F 93% 29.33 in 1.1 mi North 8.1 mph - N/A Snow Snow
11:50 AM 33.8 °F 26.4 °F 33.8 °F 100% 29.33 in 2.8 mi NE 9.2 mph - N/A Snow Light Snow
12:20 PM 33.8 °F 26.4 °F 32.0 °F 93% 29.30 in 4.3 mi ENE 9.2 mph - N/A   Mostly Cloudy
1:20 PM 33.8 °F 27.7 °F 32.0 °F 93% 29.30 in 4.3 mi East 6.9 mph - N/A   Mostly Cloudy
1:50 PM 33.8 °F 27.0 °F 32.0 °F 93% 29.30 in 4.3 mi East 8.1 mph - N/A   Mostly Cloudy
2:20 PM 33.8 °F 27.0 °F 32.0 °F 93% 29.30 in 3.7 mi East 8.1 mph - N/A Snow Light Snow
2:50 PM 33.8 °F 27.0 °F 32.0 °F 93% 29.30 in 3.7 mi East 8.1 mph - N/A Snow Light Snow
3:20 PM 33.8 °F 26.4 °F 32.0 °F 93% 29.30 in 2.8 mi ESE 9.2 mph - N/A Snow Light Snow
3:50 PM 33.8 °F 27.7 °F 32.0 °F 93% 29.33 in 2.8 mi SE 6.9 mph - N/A Snow Light Snow
4:20 PM 33.8 °F 27.7 °F 32.0 °F 93% 29.33 in 2.8 mi SE 6.9 mph - N/A Snow Light Snow
4:50 PM 33.8 °F 26.4 °F 32.0 °F 93% 29.33 in 2.8 mi SSE 9.2 mph - N/A Snow Light Snow
5:20 PM 33.8 °F 25.8 °F 32.0 °F 93% 29.33 in 3.7 mi South 10.4 mph - N/A Snow Light Snow
5:50 PM 33.8 °F 25.3 °F 32.0 °F 93% 29.36 in 5.0 mi SSE 11.5 mph - N/A Snow Light Snow
6:20 PM 33.8 °F 25.3 °F 32.0 °F 93% 29.36 in 5.0 mi SSE 11.5 mph - N/A   Mostly Cloudy
7:20 PM 32.0 °F 24.2 °F 30.2 °F 93% 29.36 in 5.6 mi ESE 9.2 mph - N/A   Mostly Cloudy
7:50 PM 32.0 °F 24.2 °F 30.2 °F 93% 29.39 in 5.6 mi ESE 9.2 mph - N/A   Mostly Cloudy
8:20 PM 32.0 °F 24.2 °F 30.2 °F 93% 29.39 in 5.6 mi SE 9.2 mph - N/A   Mostly Cloudy
8:50 PM 33.8 °F 26.4 °F 32.0 °F 93% 29.39 in 5.6 mi SE 9.2 mph - N/A   Mostly Cloudy
9:20 PM 33.8 °F 27.0 °F 32.0 °F 93% 29.39 in 5.6 mi ESE 8.1 mph - N/A   Mostly Cloudy
9:50 PM 33.8 °F 26.4 °F 32.0 °F 93% 29.42 in 5.6 mi SE 9.2 mph - N/A   Mostly Cloudy
10:20 PM 33.8 °F 26.4 °F 32.0 °F 93% 29.42 in 5.6 mi ESE 9.2 mph - N/A   Mostly Cloudy
10:50 PM 33.8 °F 25.8 °F 32.0 °F 93% 29.42 in 5.6 mi SE 10.4 mph - N/A   Mostly Cloudy
11:20 PM 33.8 °F 25.8 °F 32.0 °F 93% 29.42 in 5.0 mi ESE 10.4 mph - N/A   Mostly Cloudy
11:50 PM 33.8 °F 27.0 °F 32.0 °F 93% 29.42 in 5.0 mi SE 8.1 mph - N/A   Mostly Cloudy